Theta_e
341 349 352 353 352 351 350 350 350 351 352 353 353 354 354 353 352 352 352 352 352 351 349 349 349 349 347 346 347 347 348 348 348 347 346 345 345 345 345 344 344 342 345
343 349 350 352 352 351 350 350 350 351 353 353 353 353 353 352 351 351 351 351 351 349 348 349 348 347 347 346 345 346 346 346 346 347 346 343 343 343 343 343 344 341 344
343 348 351 350 351 351 351 351 351 352 353 353 352 353 353 352 351 351 351 350 350 349 348 349 347 346 346 345 345 344 343 343 345 347 348 336 336 342 343 344 343 342 342
344 347 349 350 350 351 350 350 351 352 353 353 352 352 352 351 351 351 350 349 349 349 348 348 348 346 346 345 344 344 344 344 343 344 341 341 337 344 342 340 341 341 341
339 346 349 348 349 350 350 350 351 351 351 351 351 352 351 350 350 350 349 348 349 349 348 348 348 347 345 343 342 341 341 342 341 340 337 336 333 342 342 341 339 340 340
337 343 346 346 348 350 350 350 351 350 349 349 350 351 351 350 350 350 348 348 349 349 348 348 348 346 343 341 340 340 339 339 338 333 335 336 334 341 340 339 339 339 339
337 341 345 344 347 350 351 351 350 349 348 348 349 350 350 351 351 349 347 347 348 349 349 348 347 344 342 340 339 338 337 337 333 329 329 335 337 342 341 340 338 338 338
338 339 343 346 347 348 349 349 347 347 346 346 348 348 349 350 349 348 346 346 347 347 347 346 345 343 341 340 339 337 336 335 331 325 327 336 342 343 342 340 338 338 338
340 336 338 342 346 346 345 345 344 344 344 345 345 346 347 346 346 346 346 346 346 346 346 345 343 341 340 339 337 336 334 333 328 325 326 338 345 345 342 339 338 338 338
340 336 337 337 341 341 343 343 343 343 342 343 344 344 344 344 344 344 343 344 345 345 345 344 341 339 338 337 335 334 333 333 327 325 323 339 345 346 344 341 339 338 338
341 336 336 336 337 338 339 343 343 343 342 342 343 343 340 340 340 340 340 341 343 343 342 342 340 337 335 334 333 333 333 328 326 324 323 340 346 348 346 343 342 341 339
339 337 336 335 334 335 340 339 337 340 340 340 340 339 338 336 334 338 338 339 341 341 340 338 337 335 333 328 327 332 329 327 324 323 328 339 346 348 346 346 344 342 341
339 341 338 336 335 335 335 337 338 338 338 338 337 337 336 336 332 334 331 334 334 338 334 335 333 331 329 326 325 324 325 325 323 324 330 338 344 348 346 346 346 344 342
339 341 340 338 337 336 337 337 336 336 335 335 336 335 334 333 330 330 329 329 332 333 331 328 328 328 327 326 325 323 324 323 323 325 330 335 339 346 346 344 344 345 344
339 341 342 340 339 338 337 338 338 335 335 335 335 336 336 333 331 331 331 331 331 331 331 328 327 327 326 325 326 325 326 325 326 327 328 332 333 340 345 344 344 344 344
340 340 343 342 341 340 339 339 340 338 337 336 336 336 337 337 333 334 334 333 333 333 331 330 328 328 327 328 326 327 328 330 328 328 328 329 330 334 339 343 344 344 345
338 340 342 343 343 342 340 342 342 342 340 338 338 337 338 337 337 335 336 335 335 334 332 331 330 330 331 331 330 331 332 331 329 328 328 327 328 328 331 337 339 341 344
334 338 341 343 344 344 343 342 343 345 341 341 341 341 339 338 338 339 338 337 336 335 334 334 333 332 332 331 330 331 332 331 330 329 330 328 325 327 327 330 334 338 341
328 335 339 340 344 345 346 346 344 343 342 340 340 342 342 340 340 339 339 338 337 336 336 335 333 331 329 330 331 331 331 330 330 331 330 331 327 325 325 328 329 332 335
318 332 339 339 344 345 346 347 346 345 343 342 341 341 341 344 342 340 340 339 337 336 336 335 334 333 333 332 332 332 332 331 330 330 331 332 331 328 326 325 327 327 327
316 332 337 337 341 345 344 343 343 342 343 340 341 341 341 342 344 342 340 339 339 337 336 334 335 332 332 330 330 331 331 328 329 332 331 329 329 328 327 325 324 323 323
321 333 336 337 340 343 344 344 342 342 340 342 341 340 341 341 342 342 341 340 339 338 335 335 333 333 333 333 330 322 323 325 329 332 330 331 330 329 325 323 322 320 320
322 328 336 338 339 341 342 342 339 339 337 336 337 339 339 341 341 342 342 341 340 339 337 336 334 334 332 333 333 329 319 322 318 319 322 324 325 326 324 323 321 321 321
317 319 324 336 339 340 341 340 338 338 336 338 338 336 339 340 341 341 342 342 341 341 339 338 337 336 334 332 330 334 334 322 317 314 316 318 320 320 319 319 320 322 321
319 320 321 325 340 339 339 339 337 334 335 336 337 337 336 337 340 341 340 340 340 341 340 339 337 336 337 335 333 332 331 332 329 322 318 314 316 318 321 320 319 319 320
324 327 327 321 326 341 340 338 338 336 337 337 338 338 339 341 343 343 340 340 340 339 339 339 337 337 337 336 336 336 333 326 326 320 317 316 314 316 318 319 320 320 319
Wind_Speed
7 12 16 15 17 19 18 17 17 15 13 12 11 11 12 12 13 12 12 12 12 13 13 12 12 13 13 13 12 12 10 9 9 11 13 14 15 15 17 14 13 12 15
17 12 17 16 16 18 19 16 16 16 14 13 11 11 11 11 11 11 11 11 11 12 12 12 12 12 12 11 8 8 8 8 7 8 12 12 15 15 15 14 12 10 13
16 14 15 16 16 17 18 17 16 17 16 14 12 11 11 11 11 11 10 10 10 11 11 11 11 11 10 9 6 5 5 5 4 2 5 4 4 14 12 11 10 12 13
17 14 14 16 16 17 17 18 16 16 17 15 13 11 11 11 11 10 9 10 10 11 11 11 11 10 8 6 3 2 2 2 2 3 3 4 6 13 10 10 11 10 12
14 13 13 17 16 16 17 18 17 15 15 15 14 13 12 11 11 10 9 9 9 10 11 10 10 9 7 5 1 4 4 5 5 5 6 8 5 11 10 10 9 10 10
13 11 14 16 16 16 16 17 17 16 14 14 13 13 12 12 11 10 9 9 9 9 10 10 9 9 8 6 4 5 6 6 9 4 5 7 7 14 13 11 9 9 9
12 10 11 13 15 16 16 16 16 15 14 13 13 13 13 12 11 10 10 10 10 9 10 10 9 8 8 7 6 6 7 7 5 4 4 6 7 15 14 12 9 8 8
15 10 9 11 12 14 15 14 13 14 15 13 12 12 10 10 10 10 10 9 8 9 9 10 9 9 8 7 7 7 8 7 7 4 5 5 13 15 14 13 10 7 6
14 12 7 6 9 10 10 12 12 12 12 12 13 12 12 11 11 10 9 9 10 10 9 9 9 9 9 8 8 8 8 10 6 4 3 4 13 16 15 13 11 9 7
12 12 11 7 6 6 8 11 11 11 11 12 11 11 10 10 10 10 11 10 9 9 9 9 9 9 10 10 9 8 8 10 7 6 2 5 15 16 15 14 12 9 7
9 11 11 11 8 7 6 9 12 14 13 11 10 10 7 4 6 7 7 9 11 11 11 10 10 10 10 9 9 9 9 4 6 5 3 10 16 18 17 14 12 10 8
13 11 12 10 11 8 7 6 5 6 5 6 6 7 5 6 6 9 10 13 13 12 11 11 10 9 8 4 4 9 4 6 5 6 3 15 15 17 16 14 12 10 9
16 13 13 13 11 12 9 6 5 4 4 5 7 7 6 5 5 5 4 6 5 10 4 6 5 4 6 5 5 5 6 6 5 6 5 15 17 17 16 14 13 13 12
18 18 18 16 14 12 9 8 8 7 6 5 7 7 5 5 5 5 4 5 6 5 6 5 5 7 8 9 9 7 8 7 5 5 5 17 16 16 17 16 15 15 14
20 20 20 19 17 15 13 8 10 10 9 10 10 11 8 8 7 5 5 6 6 6 7 7 7 8 9 9 10 10 9 10 10 4 3 13 10 12 15 16 16 15 16
23 21 20 22 20 18 15 13 10 10 11 10 10 11 14 9 8 7 7 7 7 8 8 8 9 9 9 9 11 12 11 11 8 7 5 8 15 16 15 16 16 17 18
21 24 23 23 22 21 20 15 8 9 11 11 11 13 15 14 10 11 7 8 7 7 11 8 9 9 7 9 12 12 12 10 8 8 6 7 10 15 15 15 16 17 18
20 22 23 19 23 23 20 16 12 6 7 10 11 10 15 16 14 10 9 9 9 7 7 7 8 9 9 8 7 7 7 9 11 10 9 8 8 9 14 17 17 18 17
14 22 22 21 22 23 19 15 15 11 6 7 6 8 13 16 16 13 10 7 8 8 8 7 7 7 5 6 7 6 7 9 12 11 13 11 12 12 9 15 19 17 17
11 19 21 19 19 19 12 10 8 9 7 5 7 8 10 11 16 14 10 10 7 5 8 9 10 7 9 9 9 9 8 7 6 9 12 12 12 13 13 12 11 11 17
6 15 20 18 15 14 11 11 9 11 9 5 4 7 9 9 11 14 11 10 7 11 12 7 10 8 8 3 6 9 9 7 9 9 6 7 8 10 10 10 8 7 9
4 14 16 18 17 16 12 10 6 8 5 7 6 5 7 8 9 12 12 11 12 10 6 10 7 8 8 6 8 2 7 7 8 9 5 9 12 8 8 9 9 10 8
9 4 11 17 17 15 11 7 3 3 1 1 4 8 6 9 10 11 13 12 11 10 11 11 8 12 12 8 12 10 4 13 1 0 5 4 3 3 5 8 8 8 8
3 7 7 8 11 13 13 11 10 8 7 9 8 4 8 11 12 12 13 13 14 11 13 10 12 13 10 14 5 11 17 4 5 4 3 2 2 6 6 4 6 9 9
4 4 6 7 13 9 11 11 9 7 5 4 4 7 7 6 11 14 13 11 11 11 13 14 12 10 12 13 13 11 10 11 12 8 7 5 10 12 7 6 6 6 8
4 5 3 6 5 14 14 9 10 9 6 3 2 2 3 4 4 7 9 10 10 11 11 10 11 12 11 11 11 13 12 6 7 4 4 10 14 7 7 7 9 9 8
Wind_Direction
135 152 141 146 135 131 131 129 127 123 121 117 111 102 97 98 97 97 98 101 106 111 111 105 100 91 85 84 86 88 83 83 89 95 92 92 83 73 69 69 65 65 65
140 147 142 144 141 138 134 136 134 129 128 129 124 116 113 110 108 105 107 113 116 118 114 112 105 103 97 92 87 88 90 88 90 101 83 81 88 78 76 76 78 78 74
136 144 144 143 144 143 140 142 141 138 137 139 136 133 130 124 119 120 124 122 124 124 125 120 112 106 97 87 76 81 92 102 114 154 0 75 73 91 87 84 79 82 78
141 145 145 145 147 147 146 145 147 148 144 147 145 143 140 135 132 133 135 135 137 137 132 129 123 116 103 89 73 349 27 48 35 303 277 202 113 99 93 89 80 95 81
138 138 147 148 152 152 151 152 151 154 152 152 151 152 152 149 147 145 144 147 147 147 145 145 138 133 128 123 102 310 327 348 332 299 255 180 156 116 105 101 88 85 86
133 138 150 154 154 154 158 157 155 154 155 156 156 157 161 163 160 156 158 158 159 157 160 160 157 154 155 165 192 271 307 327 320 336 355 162 151 134 124 115 107 98 95
131 136 156 157 156 158 161 162 160 157 159 162 164 165 168 169 167 170 172 171 173 173 174 166 166 174 179 190 206 246 283 301 304 313 273 163 154 142 138 133 130 126 127
132 138 153 158 160 162 163 165 163 163 164 166 166 169 175 175 174 177 179 182 188 187 185 174 177 189 197 212 224 239 272 291 304 312 333 166 162 152 152 144 142 147 138
132 135 143 165 171 162 163 165 163 164 167 170 172 175 178 182 182 189 194 194 193 194 195 192 193 197 209 220 234 247 263 279 279 260 262 171 175 159 161 156 160 161 155
135 144 152 160 162 169 166 162 163 169 175 177 180 183 185 190 193 196 196 198 204 206 204 204 208 214 215 220 231 246 261 273 280 276 241 179 184 167 169 168 167 170 173
146 154 163 161 166 171 174 179 176 181 182 179 183 190 186 185 199 205 205 208 208 207 210 216 219 220 223 234 242 246 251 248 260 266 211 198 191 175 176 174 170 178 184
165 170 169 172 170 167 189 172 174 180 179 180 179 184 190 197 201 206 204 211 209 209 213 220 225 229 237 236 241 244 239 243 250 263 236 186 196 184 182 178 175 186 193
170 170 178 173 177 174 186 159 174 181 183 192 189 188 194 204 223 211 202 211 203 211 207 212 221 220 219 221 241 227 228 235 239 248 226 192 197 191 187 184 182 195 201
182 178 176 177 175 187 185 170 176 178 180 189 198 191 184 210 215 216 203 192 189 197 205 203 207 213 218 222 226 229 226 225 230 241 209 198 196 196 191 191 193 202 204
185 185 178 177 179 182 190 181 180 189 186 192 190 195 188 199 213 209 208 189 194 191 200 210 211 214 220 224 232 225 222 224 232 223 189 205 208 205 195 196 199 204 210
186 187 181 181 180 180 189 195 190 188 188 190 193 198 200 197 205 215 209 197 197 200 203 207 210 212 218 215 226 232 227 218 214 218 187 193 203 207 206 204 204 207 212
188 186 183 180 181 181 190 192 182 186 190 192 197 195 196 201 199 206 209 215 212 199 207 207 219 220 216 218 223 226 223 222 222 214 202 191 202 210 209 208 208 209 212
188 183 187 181 184 184 185 190 199 187 185 198 197 193 195 200 205 207 210 215 208 214 208 203 202 217 229 220 214 219 220 220 220 216 210 193 197 207 212 208 210 211 209
187 186 187 184 184 189 187 184 190 191 188 200 188 199 194 197 200 206 217 217 201 217 221 219 229 212 211 224 227 230 225 218 217 220 220 208 200 202 202 208 209 207 203
194 178 185 184 184 183 179 180 186 190 192 191 212 200 197 198 199 203 214 218 203 209 227 226 226 219 226 230 235 240 235 225 206 221 229 229 204 205 202 204 203 209 202
238 171 180 177 172 167 174 178 187 198 199 198 196 219 208 202 202 204 214 215 206 223 232 226 233 227 238 229 238 251 258 253 237 230 200 215 216 198 202 198 195 197 204
120 166 171 179 169 175 178 185 188 187 202 209 219 218 210 209 199 208 209 213 217 228 230 231 220 240 247 212 227 179 257 275 249 244 213 219 223 209 193 202 202 197 193
74 112 171 174 177 178 170 158 107 97 47 156 229 231 221 211 212 206 211 216 215 215 227 223 218 226 244 236 210 213 200 239 92 187 235 243 264 244 210 203 205 198 180
73 109 107 173 183 177 162 164 167 184 187 213 218 204 214 214 218 215 215 210 213 214 222 224 222 221 217 244 236 233 238 150 231 285 284 212 256 302 272 231 200 208 198
55 83 127 138 169 172 176 168 172 187 201 185 196 209 222 223 227 226 219 215 214 216 225 226 231 223 233 245 243 242 238 238 240 259 269 6 17 263 245 217 222 211 212
38 44 59 135 142 170 176 161 168 181 184 178 200 236 255 255 243 233 228 229 232 235 223 228 229 236 232 241 244 239 236 223 236 222 260 288 238 229 223 231 222 224 221